{"data":{"norad_id":53224,"intl_designator":"2022-084AM","name":"STARLINK-4356","alt_names":[],"object_type":"PAYLOAD","status":"ACTIVE","operator":null,"country":"US","launch_date":"2022-07-22","launch_site_code":"AFWTR","launch_vehicle":null,"mission":null,"orbit_class":"UNKNOWN","rcs_meters":null,"size_class":null,"mass_kg":null,"dimensions":null,"purposes":["comms"],"wikipedia_slug":null,"has_3d_model":false,"image_url":null,"decayed_at":null,"tle_current":{"epoch":"2026-09-19T22:16:57.686016Z","epoch_age_seconds":121678,"freshness":"FRESH","line1":"1 53224U 22084AM  26262.92844544  .00000594  00000+0  20741-4 0  9995","line2":"2 53224  97.2832 317.7151 0001132 103.5602 256.5767 15.33436247228602","mean_motion":15.33436247,"eccentricity":0.0001132,"inclination_deg":97.2832,"raan_deg":317.7151,"arg_perigee_deg":103.5602,"mean_anomaly_deg":256.5767,"bstar":2.0741e-5,"rev_number":22860,"period_min":93.906740682386,"perigee_km":464.79450982794,"apogee_km":466.34392491556,"semimajor_km":6843.7062173718,"source":"CELESTRAK","updated_at":"2026-09-20T09:00:40.195089Z"}}}